Dewpoint
58 58 58 58 58 58 59 59 60 59 58 57 56 55 53 52 50 50 49 49 49 49 49 49 49 51 51 48 49 52 55 55 54 52 51 50 47 43 40 38 38 38 37 34 35 35 37
58 59 59 59 59 59 60 59 58 56 55 54 53 52 50 50 49 48 47 47 47 46 46 46 48 50 48 38 49 53 50 51 53 53 52 51 49 47 44 43 41 37 36 35 35 35 35
58 59 59 59 59 59 59 57 55 54 53 52 51 50 49 47 46 46 45 45 45 45 44 44 45 49 43 34 43 45 47 48 49 49 50 52 52 50 48 46 47 45 42 41 39 36 35
58 59 59 58 59 58 56 55 54 53 52 51 49 47 47 46 45 44 43 42 42 43 44 45 49 46 19 42 44 46 40 42 42 45 49 50 51 51 49 48 47 44 44 39 41 41 42
59 59 59 59 57 55 54 53 52 51 50 48 47 45 43 42 41 41 40 42 45 46 45 45 43 38 11 39 40 37 32 27 27 32 34 32 46 47 46 42 39 39 35 37 39 40 40
59 59 58 56 55 53 52 52 50 49 48 45 43 41 41 41 42 43 45 45 45 47 47 47 45 30 34 34 35 30 29 27 26 30 28 39 34 38 39 39 30 32 32 34 35 37 39
59 58 56 54 53 52 51 49 48 47 44 41 41 43 43 42 43 44 40 36 26 23 27 27 30 32 28 28 28 25 28 28 30 29 25 27 20 22 26 28 26 27 32 34 36 38 38
57 55 54 53 52 50 48 47 45 43 41 42 42 41 40 42 42 40 39 33 31 30 16 28 31 32 31 30 26 22 30 23 29 28 30 30 26 25 21 19 19 16 17 25 31 36 35
55 54 53 52 50 48 46 44 42 42 42 41 40 40 41 41 38 36 37 39 42 38 19 15 24 28 23 30 27 20 24 20 26 27 23 26 25 25 28 29 28 27 25 20 18 27 32
53 52 51 50 48 46 43 42 42 41 40 41 41 42 42 36 33 35 35 38 42 31 -5 -0 19 26 19 19 22 18 16 17 26 23 21 23 26 28 29 25 27 25 28 27 25 19 20
51 51 50 48 45 44 43 42 40 40 41 42 42 42 41 32 33 33 34 38 41 23 -38 -1 14 19 20 18 17 17 17 17 15 12 15 15 19 23 26 23 25 27 26 26 28 24 22
51 49 47 46 45 44 43 41 41 41 41 42 42 42 37 33 34 35 37 38 22 -9 -33 10 17 19 18 22 17 17 18 19 21 21 22 25 28 28 24 25 29 30 29 32 31 23 20
47 46 46 45 45 43 41 42 41 42 42 42 42 43 38 35 30 36 33 21 -5 -12 5 14 17 19 18 19 14 17 17 15 14 15 16 17 17 21 26 28 24 27 25 20 18 18 14
45 44 43 41 42 42 42 42 43 42 41 41 42 41 41 39 39 33 22 5 -11 4 12 18 18 19 17 17 16 17 14 10 18 25 19 17 13 18 30 25 22 26 26 21 13 11 11
45 44 43 43 43 43 43 43 42 41 40 41 39 36 35 39 39 27 12 1 3 11 18 17 19 16 14 14 17 16 14 15 18 24 20 19 16 21 22 23 28 29 26 29 24 24 20
44 44 44 44 44 43 42 42 40 40 41 41 34 35 36 39 33 21 13 12 15 18 19 20 18 18 15 14 16 15 15 16 18 27 27 25 19 21 25 29 32 31 33 23 25 15 11
44 44 44 44 44 42 40 40 40 41 41 38 30 30 34 38 30 20 12 14 19 21 21 19 17 17 15 15 16 16 15 17 24 21 22 26 25 18 20 24 26 26 27 25 27 25 14
44 44 44 43 41 40 41 41 41 41 42 34 26 26 33 31 20 20 18 21 24 21 22 20 21 20 16 16 16 16 16 17 19 23 20 28 26 18 15 17 30 23 26 25 22 20 23
44 43 42 41 41 41 41 41 41 42 37 31 28 31 33 28 12 18 22 21 22 20 20 20 19 19 19 17 15 16 16 21 20 20 22 27 20 15 10 12 18 17 19 23 29 27 23
43 42 41 41 42 42 41 41 41 41 39 31 24 22 28 27 25 21 20 20 20 22 21 22 21 22 18 18 19 17 16 18 19 19 21 23 21 17 14 16 17 19 25 30 27 23 23
42 42 43 42 41 41 40 41 41 41 39 29 25 23 25 21 21 22 23 22 20 21 22 23 20 19 20 19 18 15 16 18 19 19 21 19 18 18 17 16 16 24 25 25 25 28 24
43 43 42 42 40 40 40 40 40 41 36 29 25 24 25 25 25 21 22 19 21 23 23 19 19 20 22 21 18 18 19 20 19 20 19 21 16 18 14 10 13 21 25 24 24 26 29
42 42 43 41 42 42 42 42 41 40 36 32 32 30 21 23 22 19 20 21 23 25 24 24 23 23 21 21 22 24 25 26 25 23 20 20 21 15 9 12 13 16 24 26 25 27 26
42 42 41 41 41 41 42 42 41 40 36 33 32 28 19 20 21 20 22 23 23 25 24 25 25 23 23 28 28 24 25 25 25 22 23 20 19 17 13 11 9 22 30 30 27 27 28
42 42 41 42 41 42 42 42 41 40 38 35 35 27 23 19 22 22 22 23 24 25 24 24 24 25 29 25 19 16 15 14 15 19 21 23 19 14 10 10 12 20 26 27 26 24 29
43 42 41 42 41 41 41 41 41 40 38 36 35 34 25 16 18 24 23 24 23 25 23 24 27 29 25 21 19 16 15 19 18 20 22 21 18 15 13 10 11 22 27 30 32 18 29
42 41 41 41 40 40 41 41 42 42 39 36 36 36 27 21 24 25 22 23 27 25 23 23 26 24 24 18 16 16 15 22 17 18 20 21 19 15 15 14 16 23 29 29 16 20 28
41 40 39 38 38 38 38 38 39 41 39 35 35 36 30 27 27 28 28 27 26 26 23 24 18 22 24 17 17 17 18 20 19 20 21 21 19 17 16 9 7 26 25 18 23 30 24
40 39 38 38 38 37 37 37 38 38 39 35 34 37 37 29 26 29 30 30 27 27 28 28 24 24 26 19 18 20 18 20 20 13 21 17 23 21 22 16 24 31 32 32 32 25 22
Wind_Speed
28 25 23 22 22 20 16 14 12 12 14 13 12 9 8 6 4 3 3 7 8 9 10 11 10 9 4 3 13 16 26 22 22 20 7 8 12 8 17 9 14 29 29 33 31 30 29
28 26 24 22 20 19 16 16 18 19 18 15 13 10 8 5 3 4 7 9 11 10 7 8 8 5 3 15 5 11 16 16 13 15 16 14 10 14 22 29 24 10 23 33 34 32 21
29 27 25 25 23 20 22 22 20 19 16 12 10 8 7 5 5 7 8 11 12 11 8 7 7 2 3 18 14 18 20 12 16 16 18 12 18 24 10 28 28 33 35 38 46 15 16
30 27 25 23 22 24 24 23 20 18 15 13 10 9 6 7 6 7 10 13 15 14 9 5 3 5 7 6 13 12 10 10 8 13 13 14 21 25 18 14 13 26 26 27 36 25 32
29 27 23 24 26 26 25 22 21 18 15 12 9 9 7 6 6 9 14 16 15 4 1 5 3 4 6 8 8 15 13 12 16 16 8 15 12 20 23 28 33 33 41 42 46 40 18
29 27 28 30 30 27 25 23 21 18 12 14 8 7 9 5 9 12 14 11 4 4 6 5 5 2 6 9 10 19 8 11 4 11 9 2 4 9 16 21 40 35 34 36 37 47 27
30 31 31 31 31 29 27 24 21 19 17 10 8 8 6 6 9 10 5 2 4 3 8 3 2 1 8 14 7 7 8 10 4 3 6 7 11 19 22 25 26 27 29 41 47 35 29
36 37 35 33 32 31 28 25 22 18 16 13 9 7 5 7 7 9 6 8 4 4 5 6 1 5 9 6 6 18 10 10 4 9 10 6 14 19 24 27 30 39 43 49 36 33 36
38 37 36 34 33 31 29 25 21 18 15 15 8 5 6 3 5 11 14 4 3 4 3 6 2 2 5 4 5 10 12 11 9 9 11 16 15 25 25 22 24 30 29 40 47 43 38
41 38 35 34 32 30 26 24 22 20 15 13 11 8 5 6 5 0 3 3 4 4 5 9 4 2 12 11 1 13 16 6 4 11 16 15 11 14 15 21 24 35 25 32 40 38 40
40 39 36 34 31 28 27 25 20 19 15 12 10 10 14 6 11 3 1 4 8 4 3 11 4 3 12 5 10 5 23 5 12 21 8 21 28 28 24 21 20 29 31 36 40 39 32
39 39 37 33 31 28 26 24 21 18 15 13 11 10 7 6 4 2 6 10 3 4 1 6 5 12 14 4 13 10 8 7 10 10 18 25 18 22 32 28 21 22 29 32 24 23 33
40 38 35 32 29 27 25 24 21 17 14 12 10 9 6 2 3 3 3 3 4 6 5 7 8 14 17 9 17 14 17 22 9 10 15 29 14 17 17 11 12 15 23 10 8 15 30
37 36 34 33 28 26 24 23 20 16 15 12 10 7 5 3 1 2 4 5 9 2 3 6 9 15 5 10 9 12 16 15 6 3 20 11 38 5 2 4 17 22 18 12 12 16 24
39 36 34 32 27 26 24 22 18 15 13 12 12 5 4 9 2 5 7 11 4 2 2 6 13 3 4 15 10 9 11 9 4 6 11 12 20 15 24 25 6 5 8 15 17 15 6
39 34 32 31 27 25 23 20 17 15 15 18 9 8 5 9 7 8 10 6 2 3 4 1 2 3 7 12 9 13 6 6 10 4 10 9 25 8 10 11 1 11 13 15 9 5 9
37 34 31 28 26 24 21 19 16 14 17 11 5 7 7 10 5 12 8 3 2 6 3 2 3 5 7 7 8 7 7 15 4 20 21 22 8 17 18 7 18 21 11 12 8 9 8
34 32 30 28 25 23 20 17 14 14 18 5 5 7 6 4 7 4 5 2 3 3 1 2 4 5 6 9 9 7 9 6 18 20 24 8 6 18 29 20 7 15 16 14 9 10 4
32 30 29 27 24 21 18 14 13 20 11 8 6 5 3 4 6 4 1 2 1 3 6 4 4 2 7 8 8 11 16 6 19 22 8 10 7 17 22 12 12 16 26 27 21 5 11
30 28 26 25 23 20 17 14 13 15 11 6 6 6 4 6 2 5 3 3 5 5 4 2 6 5 9 16 9 14 22 11 24 20 18 6 6 11 15 20 24 19 24 22 17 8 13
29 27 25 23 21 19 16 14 12 13 10 6 6 3 2 5 3 6 3 2 6 6 4 4 3 3 11 9 16 8 12 20 13 14 4 11 9 12 20 21 8 21 27 26 25 21 14
27 25 23 21 20 17 13 10 9 12 11 7 8 8 4 5 4 6 2 2 2 4 2 5 4 15 12 7 12 25 17 16 12 10 16 5 7 12 12 12 16 18 28 26 29 23 15
27 24 22 21 20 17 13 10 7 5 5 4 3 3 9 1 6 5 4 3 2 5 3 9 12 16 16 14 11 21 22 23 24 18 11 4 5 10 9 26 15 17 32 22 24 29 23
26 24 22 21 19 17 15 13 13 9 6 7 4 7 6 7 6 6 4 1 5 2 7 10 12 7 8 17 20 9 8 14 14 15 14 5 5 3 9 17 8 12 15 14 13 24 23
26 25 22 21 19 17 15 15 14 15 16 13 4 5 5 8 5 3 3 3 7 5 4 7 9 7 16 9 8 7 7 7 7 9 12 9 3 5 6 9 4 5 19 16 14 15 24
25 23 22 20 19 17 16 14 15 15 13 7 5 5 6 12 6 6 4 2 3 3 5 5 6 7 9 6 5 7 7 5 7 16 6 6 4 2 5 3 5 5 25 19 9 18 19
23 21 20 19 18 17 17 18 16 13 10 6 3 4 5 6 2 6 4 5 4 1 3 5 7 7 7 8 6 6 4 5 7 11 9 9 6 8 6 2 4 10 21 9 8 7 16
22 20 19 18 16 15 15 17 16 15 9 5 4 5 3 4 1 7 4 5 3 2 1 3 2 3 6 7 4 3 3 4 5 5 8 6 7 6 5 5 5 19 14 9 2 7 7
20 19 18 17 16 15 14 14 14 14 10 4 4 3 3 5 2 2 6 10 9 9 2 1 1 1 2 5 1 1 2 3 3 6 3 6 2 3 1 4 7 8 7 10 3 5 7
Wind_Direction
192 196 191 192 187 194 201 198 195 170 152 149 143 133 122 109 98 63 355 327 329 332 347 351 356 353 346 250 244 277 297 305 301 301 257 242 224 237 248 243 234 235 252 257 261 262 265
189 189 187 185 188 185 186 171 160 153 152 153 147 139 127 105 70 23 356 329 319 314 333 342 344 317 148 276 329 325 348 333 308 298 281 258 251 238 268 260 251 274 279 267 266 267 271
184 189 187 185 184 177 164 157 155 152 150 143 128 124 100 76 38 5 340 305 298 313 336 335 309 148 191 257 326 321 324 312 303 299 290 265 256 246 257 261 253 257 260 269 264 247 238
182 187 186 182 173 163 152 153 151 146 140 134 130 107 88 56 12 337 306 300 314 311 292 259 212 134 254 286 317 335 343 332 326 297 285 281 269 267 256 277 275 262 264 260 270 252 248
178 179 176 165 152 146 147 144 138 134 128 119 110 95 70 39 351 325 320 319 309 328 61 164 105 107 295 306 15 315 312 304 303 284 306 300 262 257 269 268 270 258 263 258 264 257 246
171 170 159 152 144 143 140 137 132 127 118 113 98 90 66 11 354 327 323 317 42 116 85 129 98 55 25 312 314 317 302 330 328 309 309 248 287 291 279 243 251 268 263 263 260 263 246
162 155 147 144 142 142 140 138 132 128 122 111 105 75 46 14 352 335 27 46 357 321 41 17 337 282 276 310 302 313 308 331 5 22 344 298 273 270 280 283 290 297 296 290 271 277 265
152 147 146 144 144 143 142 139 133 131 128 124 110 90 39 10 41 26 74 89 127 181 322 6 319 259 272 271 313 344 2 13 329 324 315 312 260 259 267 275 279 279 275 276 289 286 269
148 145 145 146 146 144 143 141 138 137 131 121 102 89 61 48 120 48 75 80 124 79 50 335 338 296 4 178 269 345 3 331 299 294 296 269 274 283 278 277 279 275 276 279 274 281 284
143 145 144 145 144 142 142 137 142 133 136 115 103 65 82 143 76 224 62 8 110 81 81 2 20 34 347 317 3 322 358 313 280 287 298 284 251 270 271 278 266 275 272 267 272 265 258
143 143 144 140 144 140 148 143 142 133 122 112 102 86 69 128 138 82 341 18 113 68 272 333 30 42 337 35 293 355 324 319 290 309 302 275 288 283 281 276 262 266 281 274 269 259 259
143 139 141 143 145 147 142 140 140 129 127 119 104 88 109 69 66 71 11 118 62 60 158 348 33 343 353 348 355 313 310 278 281 286 275 278 281 268 257 263 265 270 287 292 253 249 243
139 140 139 140 142 144 143 142 137 135 128 117 102 84 77 102 102 316 116 81 60 73 307 355 333 337 337 336 344 338 330 323 332 323 328 321 304 284 247 277 294 254 310 285 230 209 237
138 138 140 144 148 144 144 140 138 135 121 110 99 93 49 64 29 84 65 73 73 253 340 336 345 324 323 354 323 325 319 321 344 329 319 331 318 8 89 244 286 294 253 270 265 245 259
138 146 144 141 148 148 144 138 137 132 125 123 119 51 54 352 54 50 74 58 120 207 343 326 324 317 313 330 326 341 312 290 287 347 326 306 294 293 290 280 264 307 291 280 266 256 306
144 143 144 143 144 143 140 135 140 138 142 145 110 103 39 337 4 57 72 101 116 219 328 287 251 278 301 320 326 342 305 283 335 309 344 292 292 298 305 306 166 263 297 319 306 206 235
141 140 140 138 138 137 136 144 146 148 150 138 84 80 351 345 40 54 81 110 237 255 286 254 262 276 283 332 314 311 273 303 327 330 337 305 296 304 333 345 326 329 324 324 271 268 194
136 134 133 133 134 140 144 147 156 153 138 95 79 86 332 10 57 42 75 175 297 299 3 309 249 253 278 334 308 302 265 294 312 318 324 309 296 309 313 290 291 336 326 315 293 323 348
130 131 132 133 139 140 142 145 149 145 154 116 90 104 350 62 96 76 19 9 343 334 339 351 303 305 315 326 314 285 292 297 313 321 315 326 341 322 336 358 333 337 325 325 312 317 359
127 128 130 135 138 138 138 138 134 158 151 91 114 111 25 58 90 111 78 30 4 322 301 252 282 310 335 316 280 284 294 310 322 313 315 316 281 276 298 293 295 321 346 359 356 354 346
127 129 132 133 134 136 135 131 131 136 136 95 47 105 119 132 95 96 82 39 344 4 337 328 314 286 322 303 308 277 304 316 306 294 335 351 280 288 295 298 342 22 9 12 8 360 30
126 128 130 131 129 126 127 128 132 126 117 88 132 139 79 108 111 99 74 133 274 320 281 304 261 306 305 259 264 298 314 312 295 306 327 321 283 314 305 320 341 28 24 14 19 3 14
127 130 129 127 124 123 118 104 110 124 114 119 132 88 116 100 116 127 184 166 233 350 281 251 295 310 302 285 277 278 273 271 261 283 306 279 308 337 308 331 334 22 2 19 19 30 29
128 128 129 126 126 116 102 89 75 72 149 119 143 109 113 142 145 168 152 260 291 286 264 290 302 280 273 308 302 282 264 260 258 277 236 280 323 308 303 344 41 344 349 356 24 32 29
127 128 129 126 119 112 101 85 74 67 77 97 98 104 125 123 147 155 210 243 307 289 280 278 279 275 308 321 1 0 360 360 332 346 15 218 4 343 350 349 307 353 348 345 349 25 17
126 126 126 122 117 113 106 101 82 80 81 71 68 104 100 126 196 113 142 161 263 294 315 258 303 320 355 14 38 21 19 316 328 334 48 71 43 87 346 2 5 351 332 333 309 31 355
123 125 122 123 119 117 113 101 93 89 85 105 56 31 99 99 136 138 171 169 175 191 258 296 334 343 11 24 57 31 8 337 356 345 335 338 351 22 11 340 310 322 321 310 50 358 334
124 125 122 120 120 113 105 102 98 84 70 77 100 6 98 92 188 182 180 172 160 171 260 304 6 4 21 54 39 352 354 330 322 300 330 350 343 347 345 11 1 352 351 68 184 309 334
121 123 126 127 118 112 105 96 91 90 86 78 86 358 61 79 221 218 223 235 219 211 219 8 166 225 183 75 110 260 319 323 337 341 331 15 11 331 326 296 301 312 298 304 276 341 344